This is the latest recevied weather packets stored in our database for station/object OE5RPP. If no packets are shown the sender has not sent any weather packets the latest 1 day(s).
| Time | Temp. | Humidity | Pressure | Rain* | Wind** | Luminosity | Snow |
|---|---|---|---|---|---|---|---|
| 1778017267 | 12.78° C | 59% | 1011.9 hPa | 0 mm | 1.79 m/s, 157° | - | - |
| 1778016666 | 12.22° C | 60% | 1010.9 hPa | 0 mm | 1.79 m/s, 247° | - | - |
| 1778016066 | 11.11° C | 58% | 1010.9 hPa | 0 mm | 1.34 m/s, 247° | - | - |
| 1778015466 | 10.56° C | 57% | 1010.9 hPa | 0 mm | 0.89 m/s, 315° | - | - |
| 1778014865 | 11.11° C | 54% | 1010.9 hPa | 0 mm | 0.45 m/s, 45° | - | - |
| 1778013667 | 11.11° C | 53% | 1010.9 hPa | 0 mm | 0.45 m/s, 45° | - | - |
| 1778013065 | 11.11° C | 53% | 1009.9 hPa | 0 mm | 1.34 m/s, 292° | - | - |
| 1778012465 | 11.11° C | 49% | 1009.9 hPa | 0 mm | 0.45 m/s, 292° | - | - |
| 1778011866 | 11.67° C | 49% | 1009.9 hPa | 0 mm | 0 m/s | - | - |
| 1778011265 | 12.22° C | 50% | 1009.9 hPa | 0 mm | 1.34 m/s, 180° | - | - |
| 1778010665 | 12.22° C | 49% | 1009.9 hPa | 0 mm | 0 m/s | - | - |
| 1778010067 | 12.78° C | 48% | 1009.9 hPa | 0 mm | 0 m/s | - | - |
| 1778009466 | 13.33° C | 48% | 1009.9 hPa | 0 mm | 0 m/s | - | - |
| 1778008866 | 13.33° C | 48% | 1009.9 hPa | 0 mm | 1.79 m/s, 180° | - | - |
| 1778008265 | 13.33° C | 48% | 1009.9 hPa | 0 mm | 0.89 m/s, 202° | - | - |
| 1778007667 | 13.33° C | 47% | 1009.9 hPa | 0 mm | 1.34 m/s, 202° | - | - |
| 1778007067 | 13.89° C | 47% | 1009.9 hPa | 0 mm | 0 m/s | - | - |
| 1778006466 | 14.44° C | 47% | 1008.9 hPa | 0 mm | 0 m/s | - | - |
| 1778005865 | 14.44° C | 47% | 1008.9 hPa | 0 mm | 0 m/s | - | - |
| 1778005265 | 15° C | 47% | 1008.9 hPa | 0 mm | 1.34 m/s, 202° | - | - |
| 1778004666 | 15° C | 48% | 1008.9 hPa | 0 mm | 0 m/s | - | - |
| 1778004066 | 15° C | 49% | 1008.9 hPa | 0 mm | 1.34 m/s, 202° | - | - |
| 1778003466 | 15° C | 51% | 1008.9 hPa | 0 mm | 1.34 m/s, 225° | - | - |
| 1778002865 | 14.44° C | 53% | 1008.9 hPa | 0 mm | 2.24 m/s, 337° | - | - |
| 1778002267 | 14.44° C | 51% | 1008.9 hPa | 0 mm | 2.68 m/s, 337° | - | - |
* Rain latest hour (hover to see other rain measurements)
** Current wind speed in m/s (hover to see current wind gust speed)